Home > Weather > Beirut > Past weeks

Flag for Lebanon Past Weather in Beirut, Lebanon — Yesterday and Last 2 Weeks

Now
84 °F

Scattered clouds.


Feels Like: 91 °F
Forecast: 78 / 83 °F
Wind: 12 mph from Southwest

Location: Beirut Airport

Current Time: Jul 27, 2016 at 10:52:25 AM

Latest Report: Jul 27, 2016 at 10:00 AM


Visibility: 5 mi

Pressure: 29.77 "Hg

Humidity: 70%

Dew Point: 73 °F

Location of BeirutLocation

Past Weather in Beirut — Graph

°F

Beirut Temperature Yesterday

Maximum temperature yesterday: 88 °F (at 12:00 PM)
Minimum temperature yesterday: 79 °F (at 3:00 AM)
Average temperature yesterday: 84 °F

High & Low Weather Summary for the Past Weeks

 TemperatureHumidityPressure
High88 °F (Jul 13, 3:00 PM)84% (Jul 14, 12:00 AM)29.92 "Hg (Jul 14, 12:00 AM)
Low77 °F (Jul 15, 6:00 AM)48% (Jul 22, 8:00 AM)29.65 "Hg (Jul 24, 7:00 PM)
Average83 °F67%29.78 "Hg
* Reported Jul 12 9:00 AM — Jul 27 9:00 AM, Beirut, Weather by CustomWeather, © 2016

Note: Actual official high and low records may vary slightly from our data, if they occured in-between our weather recording intervals... More about our weather records

Advertising

Beirut Weather History for the Previous 24 Hours

Scroll right to see more
 ConditionsComfort  
Time TempWeatherWind HumidityBarometerVisibility
9:00 AM
Wed, Jul 27
84 °FPassing clouds.12 mph66%29.77 "Hg5 mi
8:00 AM81 °FPassing clouds.8 mph66%29.77 "Hg5 mi
7:00 AM79 °FScattered clouds.3 mph70%29.77 "Hg5 mi
6:00 AM79 °FPassing clouds.5 mph74%29.77 "Hg5 mi
5:00 AM79 °FPassing clouds.5 mph79%29.74 "Hg5 mi
4:00 AM81 °FPassing clouds.3 mph79%29.77 "Hg5 mi
3:00 AM81 °FPassing clouds.3 mph79%29.77 "Hg5 mi
2:00 AM81 °FPassing clouds.3 mph79%29.77 "Hg5 mi
1:00 AM81 °FPassing clouds.6 mph79%29.77 "Hg5 mi
12:00 AM82 °FPassing clouds.5 mph74%29.77 "Hg5 mi
11:00 PM
Tue, Jul 26
82 °FFog.6 mph79%29.77 "Hg3 mi
10:00 PM82 °FPassing clouds.6 mph79%29.74 "HgN/A
9:00 PM82 °FPassing clouds.6 mph79%29.74 "HgN/A
8:00 PM84 °FPassing clouds.6 mph74%29.74 "HgN/A
7:00 PM84 °FPassing clouds.8 mph74%29.74 "HgN/A
6:00 PM86 °FScattered clouds.10 mph70%29.74 "Hg5 mi
5:00 PM86 °FScattered clouds.9 mph70%29.74 "Hg5 mi
4:00 PM86 °FPassing clouds.9 mph70%29.77 "Hg5 mi
3:00 PM88 °FScattered clouds.13 mph66%29.77 "Hg5 mi
2:00 PM88 °FScattered clouds.13 mph66%29.77 "Hg5 mi
1:00 PM88 °FScattered clouds.13 mph62%29.77 "Hg5 mi
12:00 PM88 °FScattered clouds.13 mph66%29.77 "Hg5 mi
11:00 AM86 °FScattered clouds.14 mph66%29.77 "Hg5 mi
10:00 AM86 °FScattered clouds.15 mph70%29.77 "Hg5 mi
Weather by CustomWeather, © 2016

See weather overviewHow to use our weather pages